Estación de Maule

Ultimos registro cada 15 minutos 28
Estación Fecha / Hora Temperatura Humedad Lluvia Velocidad Dirección Radiación Presion
28 Maule 09-05-2026 06:45 4,4 92 0 1,3 185 0 1020,3
27 Maule 09-05-2026 06:30 4,7 93 0 0 190 0 1020,4
26 Maule 09-05-2026 06:15 4,8 93 0 0,4 185 0 1020,4
25 Maule 09-05-2026 06:00 5 93 0 2,7 174 0 1020,6
24 Maule 09-05-2026 05:45 5,1 93 0 1,8 185 0 1020,4
23 Maule 09-05-2026 05:30 5,3 93 0 0,4 175 0 1020,6
22 Maule 09-05-2026 05:15 5,6 93 0 1,3 185 0 1020,3
21 Maule 09-05-2026 05:00 5,7 94 0 1,3 174 0 1020,5
20 Maule 09-05-2026 04:45 5,8 94 0 0 185 0 1020,4
19 Maule 09-05-2026 04:30 6,1 93 0 0,9 160 0 1020,5
18 Maule 09-05-2026 04:15 6,3 93 0 0,9 169 0 1020,6
17 Maule 09-05-2026 04:00 6,6 92 0 0,9 173 0 1020,7
16 Maule 09-05-2026 03:45 6,9 92 0 0 185 0 1020,8
15 Maule 09-05-2026 03:30 7,2 92 0 0,9 172 0 1021
14 Maule 09-05-2026 03:15 7,4 92 0 0,4 177 0 1021
13 Maule 09-05-2026 03:00 7,8 92 0 2,2 190 0 1021
12 Maule 09-05-2026 02:45 8,1 91 0 2,7 163 0 1021,2
11 Maule 09-05-2026 02:30 8,3 90 0 2,2 175 0 1021,4
10 Maule 09-05-2026 02:15 8,6 91 0 1,8 202 0 1021,3
9 Maule 09-05-2026 02:00 8,7 90 0 0,9 226 0 1021,4
8 Maule 09-05-2026 01:45 8,9 90 0 0,9 190 0 1021,5
7 Maule 09-05-2026 01:30 9,1 90 0 1,3 185 0 1021,5
6 Maule 09-05-2026 01:15 9,2 91 0 2,2 239 0 1021,5
5 Maule 09-05-2026 01:00 9,3 91 0 0,9 181 0 1021,4
4 Maule 09-05-2026 00:45 9,6 91 0 0,4 200 0 1021,4
3 Maule 09-05-2026 00:30 9,6 91 0 1,3 195 0 1021,4
2 Maule 09-05-2026 00:15 9,6 92 0 1,8 190 0 1021,6
1 Maule 09-05-2026 00:00 9,6 92 0 1,8 195 0 1021,5